Location: La Silve
(44.2414°N, 5.8889°E)
Time: 10:07:51
(UTC+00:00)

Cosmos 1812 - Pass Details

Date: 01 December 2020
Orbit: 517 x 520 km, 82.5° (Epoch: 25 January)

Event Time Altitude Azimuth Distance (km) Brightness Sun altitude
Rises 17:30:16 0° 170° (S) 2,625 6.4 -15.9°
Reaches altitude 10° 17:32:28 10° 162° (SSE) 1,742 5.3 -16.3°
Maximum altitude 17:36:03 40° 93° (E) 781 3.1 -16.9°
Enters shadow 17:36:32 38° 73° (ENE) 809 3.1 -17.0°
